This demonstration page uses our WeatherBlox Daily Observations layout. Learn more.

Left ArrowRight Arrow

Hourly Observations for August 8, 2020

Temp ( °F °C ) Dew Point ( °F °C ) Humidity (%) Winds ( mph kmh ) Pressure ( in mb ) Visibility ( mi km ) Precip ( " mm )
12:54 am 00:54 Clear 78 25.6 70 21.1 76 76 undefined N/A 29.89 1012 10 16.0934 0 0
1:54 am 01:54 Clear 76 24.4 70 21.1 82 82 SSE 14 22 29.88 1012 10 16.0934 0 0
2:54 am 02:54 Clear 75 23.9 69 20.6 82 82 S 12 19 29.88 1012 10 16.0934 0 0
3:54 am 03:54 Clear 74 23.3 69 20.6 85 85 SSE 10 17 29.88 1012 10 16.0934 0 0
4:54 am 04:54 Clear 74 23.3 69 20.6 85 85 SSE 12 19 29.87 1012 10 16.0934 0 0
5:54 am 05:54 Mostly Clear 73 22.8 69 20.6 87 87 SSE 12 19 29.87 1012 9 14.48406 0 0
6:15 am 06:15 Mostly Cloudy 73 22.8 69 20.6 87 87 SSE 12 19 29.88 1012 9 14.48406 0 0
6:36 am 06:36 Cloudy 73 22.8 69 20.6 87 87 SSE 12 19 29.88 1012 9 14.48406 0 0
6:54 am 06:54 Cloudy 73 22.8 69 20.6 87 87 SSE 10 17 29.89 1012 7 11.26538 0 0
7:21 am 07:21 Cloudy 74 23.3 70 21.1 88 88 SSE 12 19 29.89 1012 7 11.26538 0 0
7:54 am 07:54 Cloudy 75 23.9 70 21.1 84 84 S 10 17 29.91 1013 7 11.26538 0 0
8:40 am 08:40 Cloudy 78 25.6 71 21.7 79 79 SSE 14 22 29.89 1012 8 12.87472 0 0
8:54 am 08:54 Cloudy 78 25.6 71 21.7 79 79 SSE 17 28 29.91 1013 8 12.87472 0 0
9:54 am 09:54 Cloudy 80 26.7 72 22.2 76 76 SSE 17 28 29.91 1013 8 12.87472 0 0
10:12 am 10:12 Mostly Cloudy 81 27.2 71 21.7 72 72 SSE 17 28 29.89 1012 8 12.87472 0 0
10:54 am 10:54 Mostly Cloudy 83 28.3 71 21.7 67 67 SSE 17 28 29.91 1013 8 12.87472 0 0
11:54 am 11:54 Cloudy 83 28.3 72 22.2 70 70 S 16 26 29.9 1012 8 12.87472 0 0
12:54 pm 12:54 Mostly Cloudy 85 29.4 72 22.2 65 65 S 16 26 29.88 1012 8 12.87472 0 0
1:54 pm 13:54 Cloudy 86 30 73 22.8 65 65 SSE 16 26 29.87 1011 8 12.87472 0 0
2:54 pm 14:54 Cloudy 86 30 73 22.8 65 65 SSE 17 28 29.87 1012 8 12.87472 0 0
3:02 pm 15:02 Cloudy 87 30.6 73 22.8 63 63 SSE 16 26 29.83 1010 8 12.87472 0 0
3:13 pm 15:13 Cloudy 86 30 73 22.8 65 65 S 12 19 29.85 1011 8 12.87472 0 0
3:25 pm 15:25 Cloudy 87 30.6 73 22.8 63 63 S 14 22 29.84 1011 8 12.87472 0 0
3:54 pm 15:54 Cloudy 87 30.6 73 22.8 63 63 SSE 14 22 29.88 1012 8 12.87472 0 0
4:41 pm 16:41 Mostly Cloudy 87 30.6 74 23.3 65 65 S 17 28 29.82 1010 8 12.87472 0 0
4:52 pm 16:52 Mostly Cloudy 90 32 73 23 59 59 SSE 15 24 29.82 1010 8 12.87472 0 0
4:54 pm 16:54 Mostly Cloudy 89 31.7 75 23.9 63 63 SSE 14 22 29.86 1011 8 12.87472 0 0
5:54 pm 17:54 Sunny 89 31.7 74 23.3 61 61 SSE 12 19 29.85 1011 8 12.87472 0 0
6:54 pm 18:54 Sunny 89 31.7 74 23.3 61 61 SSE 13 20 29.85 1011 8 12.87472 0 0
7:54 pm 19:54 Sunny 87 30.6 74 23.3 65 65 E 9 15 29.86 1011 8 12.87472 0 0
8:54 pm 20:54 Clear 84 28.9 76 24.4 77 77 ESE 10 17 29.87 1011 9 14.48406 0 0
9:54 pm 21:54 Clear 82 27.8 75 23.9 79 79 ESE 10 17 29.9 1013 9 14.48406 0 0
10:54 pm 22:54 Clear 81 27.2 74 23.3 79 79 ESE 13 20 29.88 1012 9 14.48406 0 0
11:54 pm 23:54 Clear 80 26.7 74 23.3 82 82 SE 13 20 29.88 1012 9 14.48406 0 0

Powered by AerisWeather